Location: İstanbul
(41.0082°N, 28.9784°E)
Time: 20:42:15
(UTC+03:00)

ITUPSAT 1 - Pass Details

Date: 03 May 2024
Orbit: 694 x 707 km, 98.5° (Epoch: 29 May)

Event Time Altitude Azimuth Distance (km) Brightness Sun altitude
Rises 22:04:50 0° 29° (NNE) 3,080 ? -19.9°
Reaches altitude 10° 22:07:41 10° 47° (NE) 2,157 ? -20.3°
Enters shadow 22:09:36 17° 69° (ENE) 1,730 ? -20.6°
